Estación Meteorológica Peña el Pijo (Robertgarden) [ 09/29/20 21:13:19 CEST ]

Fecha Hora Presion(HPa) Temp (°C) Humedad % Rocio (°C) Viento ( m/s) Direccion Lluvia 1Hora(mm) Lluvia 24H(mm) LLuvia Total(mm)
2020-Mar-15 01:09:17 1009.000 - - - - N     39.88
2020-Mar-15 02:09:51 1008.900 - - - - N     39.88
2020-Mar-15 03:13:19 1008.200 - - - - N     39.88
2020-Mar-15 04:09:03 1007.600 - - - - N     39.88
2020-Mar-15 05:09:17 1007.600 - - - - N     39.88
2020-Mar-15 06:09:27 1007.500 - - - - N     39.88
2020-Mar-15 07:08:49 1007.500 - - - - N     39.88
2020-Mar-15 08:09:11 1007.500 - - - - N     39.88
2020-Mar-15 09:10:14 1007.800 - - - - N     39.88
2020-Mar-15 10:08:33 1007.500 - - - - N     39.88
2020-Mar-15 11:09:32 1007.000 - - - - N     39.88
2020-Mar-15 12:09:19 1006.300 - - - - N     39.88
2020-Mar-15 13:09:22 1005.900 - - - - N     39.88
2020-Mar-15 14:09:27 1005.000 - - - - N     39.88
2020-Mar-15 15:09:18 1004.500 - - - - N     39.88
2020-Mar-15 16:09:29 1004.100 - - - - N     39.88
2020-Mar-15 17:09:03 1003.800 - - - - N     39.88
2020-Mar-15 18:09:28 1004.400 - - - - N     39.88
2020-Mar-15 19:09:01 1004.200 - - - - N     39.88
2020-Mar-15 20:09:02 1003.900 - - - - N     39.88
2020-Mar-15 21:09:36 1004.000 - - - - N     39.88
2020-Mar-15 22:09:40 1004.000 - - - - N     39.88
2020-Mar-15 23:09:23 1003.700 - - - - N     39.88

Temperatura Máxima:    Temperatura Mínima:
Presión Máxima:1009.000 Hpa    Presión Mínima:1003.700 Hpa


Volver